Location: Howell Woods
(35.3600°N, 78.2900°W)
Time: 17:51:50
(UTC-05:00)

ISS - Pass Details

Date: 07 December 2021
Orbit: 413 x 422 km, 51.6° (Epoch: 28 January)

Event Time Altitude Azimuth Distance (km) Brightness Sun altitude
Rises 17:16:41 0° 322° (NW) 2,383 0.2 -3.8°
Reaches altitude 10° 17:19:06 10° 338° (NNW) 1,513 -0.9 -4.2°
Maximum altitude 17:21:51 23° 32° (NNE) 957 -2.4 -4.8°
Drops below altitude 10° 17:24:36 10° 87° (E) 1,501 -1.5 -5.3°
Enters shadow 17:26:13 - 99° (E) 2,070 -0.8 -5.6°
